• In Schweiz
  • Länderverzeichnis
  • Für 7 Tage
  • Wassertemperatur
  • Satellitenkarten
  • Wetterkarte
  • Widgets
  • user-avatar
    Anmelden

    Stündliche Wetter Serdytsya

    Heute, 20 Juli, Freitag

    Zeit Temperatur Niederschläge Wind Luftdruck Luftfeuchtigkeit
    00:00 +19°C° 0 mm 4 m/S 731 mmHg 96%
    01:00 +18°C° 0 mm 4 m/S 731 mmHg 96%
    02:00 +18°C° 0 mm 4 m/S 731 mmHg 97%
    03:00 +18°C° 0 mm 4 m/S 731 mmHg 97%
    04:00 +18°C° 0 mm 4 m/S 731 mmHg 97%
    05:00 +18°C° 0 mm 4 m/S 731 mmHg 97%
    06:00 +18°C° 0 mm 4 m/S 731 mmHg 95%
    07:00 +19°C° 0 mm 4 m/S 731 mmHg 93%
    08:00 +20°C° 0 mm 5 m/S 732 mmHg 91%
    09:00 +21°C° 0,1 mm 5 m/S 732 mmHg 88%
    10:00 +22°C° 0,1 mm 5 m/S 732 mmHg 85%
    11:00 +22°C° 0,1 mm 5 m/S 732 mmHg 81%
    12:00 +23°C° 0,1 mm 6 m/S 732 mmHg 78%
    13:00 +24°C° 0,1 mm 6 m/S 732 mmHg 75%
    14:00 +24°C° 0,1 mm 6 m/S 732 mmHg 72%
    15:00 +24°C° 0,1 mm 6 m/S 732 mmHg 73%
    16:00 +24°C° 0,1 mm 6 m/S 732 mmHg 73%
    17:00 +25°C° 0,1 mm 5 m/S 732 mmHg 73%
    18:00 +23°C° 0,1 mm 5 m/S 732 mmHg 77%
    19:00 +22°C° 0,1 mm 4 m/S 732 mmHg 81%
    20:00 +21°C° 0,1 mm 3 m/S 732 mmHg 86%
    21:00 +20°C° 0 mm 3 m/S 732 mmHg 87%
    22:00 +19°C° 0 mm 3 m/S 732 mmHg 89%
    23:00 +18°C° 0 mm 3 m/S 732 mmHg 91%

    Morgen, 21 Juli, Samstag

    Zeit Temperatur Niederschläge Wind Luftdruck Luftfeuchtigkeit
    00:00 +18°C° 0 mm 3 m/S 732 mmHg 92%
    01:00 +18°C° 0 mm 3 m/S 732 mmHg 93%
    02:00 +17°C° 0 mm 3 m/S 732 mmHg 94%
    03:00 +17°C° 0 mm 3 m/S 732 mmHg 95%
    04:00 +17°C° 0 mm 3 m/S 732 mmHg 96%
    05:00 +17°C° 0 mm 3 m/S 732 mmHg 96%
    06:00 +18°C° 0 mm 4 m/S 733 mmHg 93%
    07:00 +19°C° 0 mm 4 m/S 733 mmHg 90%
    08:00 +20°C° 0 mm 4 m/S 733 mmHg 87%
    09:00 +21°C° 0,1 mm 4 m/S 733 mmHg 83%
    10:00 +22°C° 0,1 mm 4 m/S 733 mmHg 78%
    11:00 +23°C° 0,1 mm 4 m/S 733 mmHg 73%
    12:00 +25°C° 0,2 mm 4 m/S 733 mmHg 71%
    13:00 +26°C° 0,2 mm 4 m/S 733 mmHg 68%
    14:00 +26°C° 0,2 mm 4 m/S 733 mmHg 65%
    15:00 +26°C° 0,1 mm 4 m/S 733 mmHg 66%
    16:00 +26°C° 0,1 mm 3 m/S 733 mmHg 67%
    17:00 +26°C° 0,1 mm 3 m/S 733 mmHg 68%
    18:00 +24°C° 0,2 mm 3 m/S 733 mmHg 74%
    19:00 +23°C° 0,2 mm 2 m/S 733 mmHg 80%
    20:00 +20°C° 0,2 mm 2 m/S 733 mmHg 86%
    21:00 +20°C° 0 mm 2 m/S 733 mmHg 88%
    22:00 +20°C° 0 mm 1 m/S 733 mmHg 89%
    23:00 +19°C° 0 mm 1 m/S 733 mmHg 90%

    übermorgen, 22 Juli, Sonntag

    Zeit Temperatur Niederschläge Wind Luftdruck Luftfeuchtigkeit
    00:00 +18°C° 0 mm 1 m/S 733 mmHg 91%
    01:00 +18°C° 0 mm 1 m/S 733 mmHg 91%
    02:00 +16°C° 0 mm 1 m/S 733 mmHg 91%
    03:00 +16°C° 0 mm 1 m/S 733 mmHg 91%
    04:00 +16°C° 0 mm 1 m/S 733 mmHg 91%
    05:00 +15°C° 0 mm 1 m/S 733 mmHg 91%
    06:00 +18°C° 0 mm 1 m/S 733 mmHg 86%
    07:00 +20°C° 0 mm 1 m/S 733 mmHg 82%
    08:00 +21°C° 0 mm 1 m/S 733 mmHg 77%
    09:00 +22°C° 0 mm 1 m/S 733 mmHg 72%
    10:00 +24°C° 0 mm 1 m/S 733 mmHg 67%
    11:00 +25°C° 0 mm 2 m/S 733 mmHg 62%
    12:00 +25°C° 0,1 mm 2 m/S 732 mmHg 60%
    13:00 +26°C° 0,1 mm 2 m/S 732 mmHg 58%
    14:00 +26°C° 0,1 mm 2 m/S 732 mmHg 56%
    15:00 +26°C° 0,1 mm 2 m/S 732 mmHg 57%
    16:00 +26°C° 0,1 mm 1 m/S 731 mmHg 58%
    17:00 +26°C° 0,1 mm 1 m/S 731 mmHg 59%
    18:00 +25°C° 0,1 mm 1 m/S 731 mmHg 64%
    19:00 +23°C° 0,1 mm 1 m/S 731 mmHg 70%
    20:00 +22°C° 0,1 mm 1 m/S 731 mmHg 75%
    21:00 +21°C° 0 mm 1 m/S 731 mmHg 77%
    22:00 +20°C° 0 mm 1 m/S 731 mmHg 79%
    23:00 +19°C° 0 mm 1 m/S 731 mmHg 81%

    23 Juli, Montag

    Zeit Temperatur Niederschläge Wind Luftdruck Luftfeuchtigkeit
    00:00 +19°C° 0 mm 1 m/S 731 mmHg 83%
    01:00 +18°C° 0 mm 1 m/S 731 mmHg 85%
    02:00 +18°C° 0 mm 1 m/S 731 mmHg 87%
    03:00 +18°C° 0 mm 1 m/S 731 mmHg 88%
    04:00 +16°C° 0 mm 1 m/S 731 mmHg 89%
    05:00 +16°C° 0 mm 1 m/S 731 mmHg 91%
    06:00 +19°C° 0 mm 1 m/S 731 mmHg 87%
    07:00 +20°C° 0 mm 1 m/S 731 mmHg 83%
    08:00 +21°C° 0 mm 2 m/S 732 mmHg 80%
    09:00 +23°C° 0,1 mm 2 m/S 732 mmHg 76%
    10:00 +24°C° 0,1 mm 2 m/S 732 mmHg 72%
    11:00 +26°C° 0,1 mm 3 m/S 732 mmHg 67%
    12:00 +26°C° 0,2 mm 3 m/S 731 mmHg 66%
    13:00 +26°C° 0,2 mm 3 m/S 731 mmHg 65%
    14:00 +27°C° 0,2 mm 3 m/S 731 mmHg 63%
    15:00 +27°C° 0,4 mm 3 m/S 731 mmHg 66%
    16:00 +26°C° 0,4 mm 3 m/S 731 mmHg 69%
    17:00 +26°C° 0,4 mm 3 m/S 731 mmHg 71%
    18:00 +25°C° 0,2 mm 3 m/S 731 mmHg 76%
    19:00 +23°C° 0,2 mm 2 m/S 732 mmHg 80%
    20:00 +21°C° 0,2 mm 2 m/S 732 mmHg 84%
    21:00 +20°C° 0 mm 2 m/S 732 mmHg 87%
    22:00 +19°C° 0 mm 2 m/S 732 mmHg 89%
    23:00 +19°C° 0 mm 2 m/S 732 mmHg 91%

    24 Juli, Dienstag

    Zeit Temperatur Niederschläge Wind Luftdruck Luftfeuchtigkeit
    00:00 +18°C° 0 mm 2 m/S 733 mmHg 92%
    01:00 +18°C° 0 mm 2 m/S 733 mmHg 92%
    02:00 +17°C° 0 mm 2 m/S 733 mmHg 93%
    03:00 +17°C° 0 mm 2 m/S 733 mmHg 93%
    04:00 +16°C° 0 mm 2 m/S 733 mmHg 93%
    05:00 +16°C° 0 mm 1 m/S 733 mmHg 94%
    06:00 +19°C° 0 mm 1 m/S 734 mmHg 90%
    07:00 +20°C° 0 mm 1 m/S 734 mmHg 86%
    08:00 +21°C° 0 mm 1 m/S 734 mmHg 82%
    09:00 +23°C° 0,1 mm 2 m/S 734 mmHg 76%
    10:00 +24°C° 0,1 mm 2 m/S 735 mmHg 70%
    11:00 +26°C° 0,1 mm 3 m/S 735 mmHg 64%
    12:00 +26°C° 0,1 mm 3 m/S 734 mmHg 62%
    13:00 +27°C° 0,1 mm 3 m/S 734 mmHg 60%
    14:00 +27°C° 0,1 mm 3 m/S 734 mmHg 59%
    15:00 +27°C° 0,1 mm 3 m/S 734 mmHg 61%
    16:00 +27°C° 0,1 mm 3 m/S 734 mmHg 64%
    17:00 +26°C° 0,1 mm 3 m/S 734 mmHg 67%
    18:00 +25°C° 0,1 mm 2 m/S 734 mmHg 72%
    19:00 +23°C° 0,1 mm 2 m/S 734 mmHg 78%
    20:00 +21°C° 0,1 mm 2 m/S 734 mmHg 84%
    21:00 +21°C° 0 mm 1 m/S 734 mmHg 85%
    22:00 +20°C° 0 mm 1 m/S 735 mmHg 87%
    23:00 +19°C° 0 mm 1 m/S 735 mmHg 89%

    25 Juli, Mittwoch

    Zeit Temperatur Niederschläge Wind Luftdruck Luftfeuchtigkeit
    00:00 +19°C° 0 mm 1 m/S 735 mmHg 89%
    01:00 +18°C° 0 mm 1 m/S 735 mmHg 89%
    02:00 +16°C° 0 mm 0 m/S 735 mmHg 89%
    03:00 +18°C° 0 mm 1 m/S 735 mmHg 90%
    04:00 +16°C° 0 mm 1 m/S 735 mmHg 90%
    05:00 +16°C° 0 mm 1 m/S 735 mmHg 91%
    06:00 +19°C° 0 mm 1 m/S 735 mmHg 87%
    07:00 +20°C° 0 mm 1 m/S 736 mmHg 83%
    08:00 +22°C° 0 mm 1 m/S 736 mmHg 79%
    09:00 +23°C° 0 mm 1 m/S 736 mmHg 74%
    10:00 +25°C° 0 mm 2 m/S 736 mmHg 69%
    11:00 +26°C° 0 mm 2 m/S 736 mmHg 64%
    12:00 +26°C° 0,2 mm 2 m/S 736 mmHg 63%
    13:00 +27°C° 0,2 mm 2 m/S 736 mmHg 62%
    14:00 +27°C° 0,2 mm 2 m/S 736 mmHg 60%
    15:00 +27°C° 0,4 mm 2 m/S 735 mmHg 62%
    16:00 +27°C° 0,4 mm 2 m/S 735 mmHg 64%
    17:00 +27°C° 0,4 mm 2 m/S 735 mmHg 66%
    18:00 +25°C° 0,4 mm 2 m/S 735 mmHg 71%
    19:00 +24°C° 0,4 mm 1 m/S 735 mmHg 76%
    20:00 +22°C° 0,4 mm 1 m/S 735 mmHg 82%
    21:00 +21°C° 0,1 mm 1 m/S 735 mmHg 83%
    22:00 +21°C° 0,1 mm 1 m/S 736 mmHg 85%
    23:00 +20°C° 0,1 mm 1 m/S 736 mmHg 87%
    Mehr zeigen